Total_Precipitation_Accumulation
0.01 0.01 0.01 0.03 0.04 0.06 0.09 0.12 0.13 0.11 0.10 0.09 0.09 0.08 0.06 0.05 0.05 0.07 0.11 0.13 0.18 0.21 0.24 0.30 0.35 0.39 0.41 0.39 0.46 0.48 0.44 0.50 0.47 0.36 0.31 0.28 0.23 0.15 0.08 0.06 0.04 0.02 0.02
0.02 0.01 0.01 0.01 0.02 0.03 0.06 0.09 0.10 0.11 0.11 0.11 0.11 0.11 0.09 0.06 0.06 0.10 0.17 0.16 0.17 0.20 0.31 0.42 0.46 0.49 0.44 0.40 0.45 0.43 0.41 0.50 0.48 0.31 0.26 0.22 0.19 0.13 0.09 0.07 0.04 0.02 0.01
0.01 0.01 0.00 0.00 0.00 0.01 0.03 0.05 0.06 0.08 0.10 0.10 0.11 0.10 0.10 0.08 0.07 0.10 0.17 0.17 0.20 0.30 0.42 0.44 0.42 0.47 0.43 0.39 0.40 0.37 0.38 0.49 0.45 0.31 0.24 0.21 0.18 0.12 0.10 0.07 0.05 0.03 0.01
0.00 0.00 0.01 0.01 0.01 0.01 0.01 0.02 0.03 0.05 0.07 0.09 0.11 0.11 0.11 0.09 0.08 0.12 0.16 0.20 0.28 0.41 0.41 0.29 0.29 0.37 0.37 0.33 0.30 0.27 0.28 0.32 0.30 0.26 0.23 0.22 0.17 0.13 0.12 0.09 0.06 0.03 0.01
0.03 0.04 0.04 0.04 0.05 0.05 0.05 0.04 0.04 0.04 0.05 0.08 0.10 0.10 0.10 0.09 0.08 0.13 0.19 0.14 0.15 0.20 0.19 0.14 0.14 0.21 0.29 0.28 0.23 0.22 0.22 0.22 0.22 0.21 0.19 0.20 0.20 0.18 0.13 0.10 0.07 0.03 0.01
0.04 0.03 0.03 0.03 0.03 0.03 0.03 0.03 0.03 0.03 0.05 0.09 0.12 0.12 0.11 0.10 0.10 0.10 0.10 0.10 0.09 0.07 0.07 0.07 0.05 0.04 0.09 0.16 0.20 0.21 0.22 0.21 0.20 0.21 0.22 0.20 0.19 0.20 0.15 0.09 0.05 0.03 0.02
0.01 0.02 0.02 0.02 0.02 0.02 0.02 0.02 0.03 0.03 0.05 0.09 0.12 0.14 0.14 0.15 0.12 0.08 0.06 0.05 0.04 0.03 0.03 0.03 0.03 0.02 0.02 0.04 0.07 0.10 0.12 0.14 0.14 0.17 0.21 0.20 0.18 0.16 0.12 0.08 0.07 0.06 0.03
0.00 0.01 0.01 0.02 0.02 0.03 0.04 0.05 0.06 0.07 0.07 0.10 0.14 0.16 0.18 0.19 0.15 0.11 0.08 0.05 0.03 0.03 0.02 0.02 0.02 0.01 0.01 0.01 0.01 0.02 0.04 0.05 0.06 0.09 0.11 0.12 0.11 0.10 0.07 0.06 0.05 0.04 0.02
0.01 0.03 0.05 0.05 0.06 0.07 0.08 0.10 0.12 0.13 0.12 0.12 0.14 0.17 0.19 0.21 0.19 0.14 0.11 0.07 0.05 0.04 0.02 0.01 0.02 0.02 0.00 0.01 0.01 0.01 0.01 0.02 0.02 0.03 0.03 0.03 0.02 0.02 0.02 0.02 0.01 0.01 0.00
0.01 0.03 0.05 0.08 0.10 0.10 0.12 0.14 0.16 0.17 0.17 0.16 0.15 0.17 0.21 0.25 0.24 0.18 0.13 0.09 0.08 0.06 0.04 0.01 0.01 0.00 0.00 0.00 0.01 0.02 0.01 0.00 0.00 0.00 0.00 0.00 0.00 0.00 0.00 0.00 0.00 0.00 0.00
0.02 0.02 0.03 0.07 0.12 0.14 0.16 0.19 0.20 0.21 0.23 0.24 0.22 0.21 0.24 0.28 0.32 0.24 0.17 0.12 0.11 0.09 0.05 0.02 0.00 0.00 0.00 0.00 0.01 0.02 0.01 0.00 0.00 0.00 0.00 0.00 0.00 0.00 0.00 0.00 0.00 0.00 0.00
0.04 0.05 0.06 0.10 0.15 0.15 0.19 0.22 0.25 0.27 0.31 0.32 0.34 0.33 0.32 0.33 0.35 0.33 0.23 0.15 0.15 0.13 0.07 0.03 0.00 0.00 0.00 0.00 0.00 0.01 0.00 0.00 0.00 0.00 0.00 0.00 0.00 0.00 0.00 0.00 0.00 0.00 0.00
0.06 0.08 0.10 0.13 0.22 0.32 0.31 0.27 0.28 0.30 0.31 0.34 0.39 0.43 0.44 0.42 0.39 0.36 0.30 0.20 0.19 0.19 0.10 0.04 0.00 0.00 0.00 0.00 0.00 0.00 0.00 0.00 0.00 0.00 0.00 0.00 0.00 0.00 0.00 0.00 0.00 0.00 0.00
0.10 0.10 0.12 0.16 0.27 0.48 0.54 0.44 0.36 0.33 0.34 0.38 0.39 0.41 0.45 0.49 0.45 0.37 0.30 0.25 0.26 0.27 0.14 0.03 0.00 0.00 0.00 0.00 0.00 0.00 0.00 0.00 0.00 0.00 0.00 0.00 0.00 0.00 0.00 0.00 0.00 0.00 0.00
0.14 0.13 0.13 0.17 0.27 0.46 0.58 0.56 0.48 0.44 0.42 0.42 0.42 0.41 0.40 0.38 0.40 0.39 0.29 0.27 0.32 0.31 0.14 0.03 0.00 0.00 0.00 0.00 0.00 0.00 0.00 0.00 0.00 0.00 0.00 0.00 0.00 0.00 0.00 0.00 0.00 0.00 0.00
0.19 0.18 0.18 0.19 0.25 0.42 0.60 0.65 0.52 0.43 0.42 0.41 0.36 0.34 0.31 0.26 0.27 0.32 0.30 0.27 0.30 0.25 0.11 0.02 0.00 0.00 0.00 0.00 0.00 0.00 0.00 0.00 0.00 0.00 0.00 0.00 0.00 0.00 0.00 0.00 0.00 0.00 0.00
0.24 0.22 0.21 0.20 0.21 0.31 0.53 0.74 0.75 0.55 0.44 0.38 0.29 0.20 0.18 0.15 0.19 0.24 0.31 0.27 0.22 0.16 0.06 0.01 0.00 0.00 0.00 0.00 0.00 0.00 0.00 0.00 0.00 0.00 0.00 0.00 0.00 0.00 0.00 0.00 0.00 0.00 0.00
0.23 0.21 0.19 0.18 0.18 0.25 0.44 0.69 0.86 0.80 0.65 0.48 0.29 0.14 0.11 0.11 0.14 0.22 0.28 0.25 0.18 0.10 0.03 0.01 0.00 0.00 0.00 0.00 0.00 0.00 0.00 0.00 0.00 0.00 0.00 0.00 0.00 0.00 0.00 0.00 0.00 0.00 0.00
0.21 0.19 0.17 0.17 0.17 0.20 0.36 0.59 0.78 0.85 0.78 0.69 0.44 0.17 0.10 0.12 0.15 0.22 0.23 0.19 0.13 0.07 0.02 0.01 0.00 0.00 0.00 0.00 0.00 0.00 0.00 0.00 0.00 0.00 0.00 0.00 0.00 0.00 0.00 0.00 0.00 0.00 0.00
0.17 0.12 0.11 0.13 0.14 0.17 0.27 0.48 0.70 0.83 0.78 0.73 0.56 0.23 0.08 0.07 0.09 0.15 0.17 0.14 0.11 0.05 0.02 0.01 0.00 0.00 0.00 0.00 0.00 0.00 0.00 0.00 0.00 0.00 0.00 0.00 0.00 0.00 0.00 0.00 0.00 0.00 0.00
0.15 0.11 0.06 0.08 0.13 0.18 0.25 0.42 0.63 0.78 0.72 0.65 0.54 0.25 0.07 0.04 0.04 0.07 0.08 0.08 0.09 0.05 0.02 0.01 0.00 0.00 0.00 0.00 0.00 0.00 0.00 0.00 0.00 0.00 0.00 0.00 0.00 0.00 0.00 0.00 0.00 0.00 0.00
0.12 0.12 0.11 0.12 0.17 0.20 0.26 0.41 0.59 0.70 0.63 0.57 0.46 0.22 0.08 0.04 0.03 0.04 0.04 0.04 0.05 0.02 0.02 0.01 0.00 0.00 0.00 0.00 0.00 0.00 0.00 0.00 0.00 0.00 0.00 0.00 0.00 0.00 0.00 0.00 0.00 0.00 0.00
0.09 0.09 0.11 0.14 0.17 0.17 0.27 0.42 0.55 0.59 0.52 0.45 0.33 0.15 0.05 0.03 0.03 0.03 0.03 0.02 0.02 0.01 0.01 0.00 0.00 0.00 0.00 0.00 0.00 0.00 0.00 0.00 0.00 0.00 0.00 0.00 0.00 0.00 0.00 0.00 0.00 0.00 0.00
0.09 0.10 0.12 0.15 0.18 0.22 0.32 0.44 0.48 0.47 0.38 0.28 0.18 0.09 0.04 0.03 0.02 0.01 0.01 0.01 0.01 0.01 0.00 0.00 0.00 0.00 0.00 0.00 0.00 0.00 0.00 0.00 0.00 0.00 0.00 0.00 0.00 0.00 0.00 0.00 0.00 0.00 0.00
0.09 0.11 0.15 0.19 0.22 0.26 0.33 0.39 0.38 0.32 0.22 0.15 0.09 0.05 0.03 0.03 0.01 0.01 0.01 0.01 0.01 0.00 0.00 0.00 0.00 0.00 0.00 0.00 0.00 0.00 0.00 0.00 0.00 0.00 0.00 0.00 0.00 0.00 0.00 0.00 0.00 0.00 0.00
0.08 0.10 0.14 0.19 0.20 0.21 0.25 0.26 0.24 0.17 0.10 0.07 0.04 0.03 0.03 0.03 0.02 0.01 0.01 0.01 0.01 0.01 0.00 0.00 0.00 0.00 0.00 0.00 0.00 0.00 0.00 0.00 0.00 0.00 0.00 0.00 0.00 0.00 0.00 0.00 0.00 0.00 0.00